Location: Unspecified
(48.2082°N, 0.0000°E)
Time: 18:39:48
(UTC+00:00)

S-56A Canister/Altair - Pass Details

Date: 25 June 2019
Orbit: 633 x 2499 km, 38.9° (Epoch: 22 August)

Event Time Altitude Azimuth Distance (km) Brightness Sun altitude
Rises 20:10:12 0° 269° (W) 3,918 12.1 -1.6°
Reaches altitude 10° 20:14:39 10° 246° (WSW) 2,596 10.6 -2.1°
Maximum altitude 20:17:31 14° 217° (SW) 2,133 9.8 -2.5°
Drops below altitude 10° 20:20:03 10° 186° (S) 2,231 9.6 -2.8°
Enters shadow 20:23:19 - 160° (SSE) 2,979 10.0 -3.2°
Sets 20:23:21 0° 159° (SSE) 2,993 - -3.2°
